Date String (YYYY-MM-DD hh:mm:ss) UTC,Instrument flags,Ambient pressure (hPa),Sample flow (lpm),Bypass flow (lpm),Sample temperature (°C),Ambient temperature (°C),ASC tube jacket temperature (°C),LED temperature (°C),Box temperature (°C),Sample RH (%),Span deviation,Mass concentration (μg/m³),Mass concentration (μg/m³),Mass concentration (μg/m³)
DateTimeUTC,F1_M11,P_M11,Q1_M11,Q2_M11,T1_M11,T2_M11,T3_M11,T4_M11,T5_M11,U1_M11,ZSPAN_M11,X0_M11,X2_M11,X1_M11
2022-04-25 09:00:00,,0832.8,5.01,0.00,22.5,21.8,00.0,31.4,24.4,10.0,0000.0,0006.28,0003.50,0002.95
2022-04-25 09:01:00,,0832.7,4.98,0.00,22.5,21.8,00.0,31.4,24.4,10.1,0000.0,0006.34,0003.47,0002.92
2022-04-25 09:02:00,,0832.7,5.01,0.00,22.5,21.8,00.0,31.4,24.4,10.0,0000.0,0006.95,0003.43,0002.90
2022-04-25 09:03:00,,0832.7,5.01,0.00,22.6,21.8,00.0,31.4,24.4,09.9,0000.0,0007.43,0003.41,0002.87
2022-04-25 09:04:00,,0832.7,5.00,0.00,22.6,21.8,00.0,31.4,24.4,09.9,0000.0,0007.42,0003.38,0002.87
2022-04-25 09:05:00,,0832.8,5.01,0.00,22.6,21.8,00.0,31.4,24.4,09.9,0000.0,0007.32,0003.38,0002.89
2022-04-25 09:06:00,,0832.8,5.01,0.00,22.6,21.8,00.0,31.5,24.4,10.1,0000.0,0007.34,0003.40,0002.92
2022-04-25 09:07:00,,0832.8,4.98,0.00,22.6,21.8,00.0,31.5,24.4,10.1,0000.0,0007.41,0003.44,0002.96
2022-04-25 09:08:00,,0832.8,5.00,0.00,22.6,21.8,00.0,31.5,24.4,10.0,0000.0,0007.48,0003.48,0002.99
2022-04-25 09:09:00,,0832.8,5.00,0.00,22.5,21.8,00.0,31.5,24.3,10.0,0000.0,0007.54,0003.45,0002.99
2022-04-25 09:10:00,,0832.8,5.00,0.00,22.5,21.8,00.0,31.5,24.3,10.0,0000.0,0007.72,0003.48,0003.00
2022-04-25 09:11:00,,0832.8,5.00,0.00,22.5,21.7,00.0,31.4,24.2,10.1,0000.0,0007.55,0003.46,0002.98
2022-04-25 09:12:00,,0832.9,5.00,0.00,22.4,21.6,00.0,31.4,24.2,10.2,0000.0,0007.47,0003.44,0002.96
2022-04-25 09:13:00,,0832.8,5.01,0.00,22.4,21.5,00.0,31.4,24.1,10.2,0000.0,0006.81,0003.43,0002.94
2022-04-25 09:14:00,,0832.9,5.00,0.00,22.4,21.4,00.0,31.4,24.0,10.2,0000.0,0006.05,0003.43,0002.94
2022-04-25 09:15:00,,0832.9,5.01,0.00,22.3,21.3,00.0,31.4,24.0,10.4,0000.0,0006.21,0003.46,0002.94
2022-04-25 09:16:00,,0832.9,5.00,0.00,22.3,21.2,00.0,31.4,23.9,10.6,0000.0,0006.30,0003.49,0002.94
2022-04-25 09:17:00,,0832.9,4.99,0.00,22.2,21.2,00.0,31.3,23.9,10.8,0000.0,0007.18,0003.51,0002.93
2022-04-25 09:18:00,,0833.0,5.00,0.00,22.2,21.2,00.0,31.3,23.9,11.1,0000.0,0007.82,0003.52,0002.92
2022-04-25 09:19:00,,0832.9,5.00,0.00,22.2,21.1,00.0,31.3,23.8,11.5,0000.0,0007.78,0003.50,0002.90
2022-04-25 09:20:00,,0833.0,4.99,0.00,22.1,21.1,00.0,31.3,23.7,11.7,0000.0,0007.79,0003.51,0002.89
2022-04-25 09:21:00,,0833.0,5.01,0.00,22.1,21.0,00.0,31.2,23.6,12.0,0000.0,0007.78,0003.50,0002.86
2022-04-25 09:22:00,,0833.0,5.00,0.00,22.0,21.0,00.0,31.2,23.5,12.1,0000.0,0008.14,0003.51,0002.85
2022-04-25 09:23:00,,0833.0,4.99,0.00,21.9,20.9,00.0,31.2,23.5,12.3,0000.0,0008.48,0003.50,0002.84
2022-04-25 09:24:00,,0833.0,5.01,0.00,21.9,20.9,00.0,31.1,23.4,12.1,0000.0,0008.58,0003.50,0002.81
2022-04-25 09:25:00,,0833.1,5.00,0.00,21.8,20.8,00.0,31.1,23.4,12.1,0000.0,0009.24,0003.53,0002.80
2022-04-25 09:26:00,,0833.0,5.00,0.00,21.8,20.7,00.0,31.1,23.3,12.2,0000.0,0009.68,0003.54,0002.79
2022-04-25 09:27:00,,0833.0,5.00,0.00,21.7,20.7,00.0,31.0,23.3,12.2,0000.0,0009.88,0003.55,0002.76
2022-04-25 09:28:00,,0833.0,5.00,0.00,21.7,20.7,00.0,31.0,23.3,12.3,0000.0,0010.37,0003.52,0002.75
2022-04-25 09:29:00,,0833.1,5.00,0.00,21.7,20.7,00.0,31.0,23.3,12.2,0000.0,0010.78,0003.50,0002.73
2022-04-25 09:30:00,,0833.0,5.00,0.00,21.6,20.7,00.0,30.9,23.3,12.1,0000.0,0011.34,0003.48,0002.71
2022-04-25 09:31:00,,0833.1,5.00,0.00,21.6,20.7,00.0,30.9,23.3,12.1,0000.0,0011.27,0003.45,0002.69
2022-04-25 09:32:00,,0833.0,5.00,0.00,21.6,20.6,00.0,30.9,23.2,12.0,0000.0,0011.08,0003.42,0002.67
2022-04-25 09:33:00,,0833.0,4.99,0.00,21.5,20.6,00.0,30.8,23.1,11.9,0000.0,0010.95,0003.40,0002.66
2022-04-25 09:34:00,,0833.0,5.00,0.00,21.5,20.6,00.0,30.8,23.1,11.9,0000.0,0010.44,0003.42,0002.66
2022-04-25 09:35:00,,0833.0,4.99,0.00,21.5,20.5,00.0,30.7,23.0,12.0,0000.0,0010.35,0003.44,0002.67
2022-04-25 09:36:00,,0833.1,5.00,0.00,21.4,20.5,00.0,30.7,23.0,11.9,0000.0,0009.82,0003.42,0002.66
2022-04-25 09:37:00,,0833.0,5.00,0.00,21.4,20.4,00.0,30.7,22.9,11.9,0000.0,0009.11,0003.38,0002.65
2022-04-25 09:38:00,,0833.0,4.99,0.00,21.3,20.5,00.0,30.6,22.9,11.9,0000.0,0009.14,0003.33,0002.63
2022-04-25 09:39:00,,0833.0,4.99,0.00,21.3,20.4,00.0,30.6,22.9,11.9,0000.0,0008.30,0003.34,0002.59
2022-04-25 09:40:00,,0833.0,5.00,0.00,21.3,20.4,00.0,30.6,22.9,12.0,0000.0,0007.23,0003.32,0002.56
2022-04-25 09:41:00,,0833.1,5.00,0.00,21.3,20.4,00.0,30.5,22.9,12.1,0000.0,0006.27,0003.32,0002.54
2022-04-25 09:42:00,,0833.1,5.00,0.00,21.3,20.5,00.0,30.5,22.9,12.2,0000.0,0006.71,0003.34,0002.53
2022-04-25 09:43:00,,0833.0,5.00,0.00,21.4,21.2,00.0,30.5,23.2,12.3,0000.0,0007.49,0003.35,0002.52
2022-04-25 09:44:00,,0833.1,5.01,0.00,21.5,22.1,00.0,30.6,23.5,12.3,0000.0,0007.67,0003.36,0002.51
2022-04-25 09:45:00,,0833.0,4.99,0.00,21.7,22.6,00.0,30.6,23.7,12.3,0000.0,0007.67,0003.35,0002.49
2022-04-25 09:46:00,,0833.0,5.00,0.00,21.7,22.3,00.0,30.6,23.7,12.2,0000.0,0007.66,0003.34,0002.49
2022-04-25 09:47:00,,0833.1,5.00,0.00,21.7,22.0,00.0,30.6,23.5,12.2,0000.0,0007.68,0003.34,0002.48
2022-04-25 09:48:00,,0833.1,5.01,0.00,21.7,21.7,00.0,30.6,23.4,12.2,0000.0,0008.22,0003.38,0002.49
2022-04-25 09:49:00,,0833.0,5.00,0.00,21.6,21.4,00.0,30.6,23.3,12.2,0000.0,0008.24,0003.43,0002.52
2022-04-25 09:50:00,,0833.0,5.01,0.00,21.5,21.2,00.0,30.6,23.2,12.3,0000.0,0008.10,0003.44,0002.55
2022-04-25 09:51:00,,0833.0,5.00,0.00,21.5,21.0,00.0,30.6,23.1,12.4,0000.0,0008.13,0003.45,0002.58
2022-04-25 09:52:00,,0833.0,5.00,0.00,21.4,20.9,00.0,30.6,23.0,12.6,0000.0,0008.26,0003.44,0002.60
2022-04-25 09:53:00,,0833.1,4.99,0.00,21.4,20.8,00.0,30.5,22.9,12.7,0000.0,0008.19,0003.42,0002.60
2022-04-25 09:54:00,,0833.0,5.01,0.00,21.3,20.6,00.0,30.5,22.9,12.8,0000.0,0007.73,0003.41,0002.59
2022-04-25 09:55:00,,0833.1,5.00,0.00,21.3,20.5,00.0,30.5,22.8,12.8,0000.0,0007.51,0003.38,0002.60
2022-04-25 09:56:00,,0833.1,5.00,0.00,21.2,20.4,00.0,30.5,22.7,13.0,0000.0,0007.54,0003.40,0002.61
2022-04-25 09:57:00,,0833.1,5.00,0.00,21.1,20.3,00.0,30.4,22.7,13.3,0000.0,0007.55,0003.39,0002.61
2022-04-25 09:58:00,,0833.2,5.00,0.00,21.1,20.2,00.0,30.4,22.6,13.6,0000.0,0007.49,0003.36,0002.61
2022-04-25 09:59:00,,0833.2,4.99,0.00,21.0,20.1,00.0,30.3,22.6,13.8,0000.0,0006.78,0003.32,0002.60
